THA346 OPLA-VTBS

Flight info

Callsign THA346
Flight time N/A
Altitude 41000
Route SULOM A466 ASARI J24 DPN V18 ALI G452 LKN R460 BBN P646 TARED DCT WILLA WILLA1C
Aircraft B772/H-SDE2E3FGHIJ5LORVWXY/LB1D1

Departure

Time 2026-04-19 19:59
Airport Allama Iqbal International Airport (OPLA)

Arrival

Time N/A
Airport Suvarnabhumi Airport (VTBS)
Time Latitude Longitude Altitude Speed Heading
2026-04-19 19:21 31.52168 74.40936 719 ft 0 kts 90°
2026-04-19 19:50 31.52168 74.40922 719 ft 2 kts 89°
2026-04-19 19:50 31.52168 74.40904 719 ft 2 kts 90°
2026-04-19 19:51 31.52170 74.40887 719 ft 2 kts 109°
2026-04-19 19:51 31.52176 74.40871 719 ft 2 kts 125°
2026-04-19 19:51 31.52186 74.40858 719 ft 2 kts 141°
2026-04-19 19:51 31.52199 74.40848 719 ft 2 kts 156°
2026-04-19 19:52 31.52213 74.40843 719 ft 2 kts 173°
2026-04-19 19:52 31.52221 74.40842 719 ft 1 kts 181°
2026-04-19 19:52 31.52224 74.40842 719 ft 0 kts 181°
2026-04-19 19:55 31.52176 74.40844 719 ft 16 kts 178°
2026-04-19 19:55 31.52047 74.40842 719 ft 19 kts 181°
2026-04-19 19:55 31.51897 74.40841 717 ft 24 kts 180°
2026-04-19 19:55 31.51765 74.40834 715 ft 15 kts 185°
2026-04-19 19:56 31.51710 74.40740 713 ft 17 kts 265°
2026-04-19 19:56 31.51622 74.40660 713 ft 24 kts 185°
2026-04-19 19:56 31.51430 74.40655 713 ft 28 kts 180°
2026-04-19 19:56 31.51233 74.40653 713 ft 28 kts 180°
2026-04-19 19:57 31.51022 74.40649 713 ft 28 kts 180°
2026-04-19 19:57 31.50840 74.40646 713 ft 19 kts 182°
2026-04-19 19:57 31.50719 74.40573 713 ft 22 kts 226°
2026-04-19 19:57 31.50677 74.40475 713 ft 11 kts 259°
2026-04-19 19:58 31.50696 74.40437 713 ft 6 kts 335°
2026-04-19 19:58 31.50715 74.40432 713 ft 0 kts 356°
2026-04-19 19:58 31.50784 74.40431 713 ft 40 kts
2026-04-19 19:58 31.51347 74.40440 713 ft 118 kts
2026-04-19 19:59 31.52382 74.40451 766 ft 172 kts 359°
2026-04-19 19:59 31.53555 74.40436 1475 ft 169 kts 359°
2026-04-19 19:59 31.54682 74.40434 2274 ft 158 kts
2026-04-19 19:59 31.55838 74.40438 2439 ft 174 kts
2026-04-19 20:00 31.57103 74.40443 2597 ft 190 kts
2026-04-19 20:00 31.58490 74.40449 2846 ft 208 kts
2026-04-19 20:00 31.60001 74.40456 3197 ft 224 kts
2026-04-19 20:00 31.61600 74.40723 3559 ft 242 kts 21°
2026-04-19 20:01 31.62990 74.41941 3893 ft 263 kts 51°
2026-04-19 20:01 31.63732 74.43910 4492 ft 273 kts 78°
2026-04-19 20:01 31.63619 74.46132 5096 ft 282 kts 106°
2026-04-19 20:01 31.62637 74.48119 5752 ft 286 kts 133°
2026-04-19 20:02 31.61010 74.49416 6321 ft 289 kts 159°
2026-04-19 20:02 31.59096 74.50143 6965 ft 290 kts 164°
2026-04-19 20:02 31.57135 74.50734 7569 ft 293 kts 167°
2026-04-19 20:02 31.55119 74.51265 8128 ft 297 kts 168°
2026-04-19 20:03 31.53093 74.51792 8709 ft 300 kts 167°
2026-04-19 20:03 31.51048 74.52324 9277 ft 303 kts 167°
2026-04-19 20:03 31.48999 74.52856 9833 ft 306 kts 167°
2026-04-19 20:03 31.46881 74.53406 10231 ft 317 kts 168°
2026-04-19 20:04 31.44671 74.53980 10501 ft 333 kts 168°
2026-04-19 20:04 31.42351 74.54582 10786 ft 350 kts 168°
2026-04-19 20:04 31.39927 74.55211 11098 ft 365 kts 168°
2026-04-19 20:04 31.37376 74.55913 11483 ft 380 kts 163°
2026-04-19 20:05 31.34892 74.57093 11933 ft 393 kts 152°
2026-04-19 20:05 31.32601 74.58873 12626 ft 400 kts 140°
2026-04-19 20:05 31.30538 74.61056 13477 ft 403 kts 136°
2026-04-19 20:05 31.28498 74.63311 14378 ft 406 kts 136°